Voltar ao catálogo

BREEZE-M DEB

LostHEO
NORAD 38627·DEBRIS·🇷🇺 Russia

Lançado Mar 14, 2008 de Baikonur Cosmodrome

Loading…

Próximas Passagens (próximas 24 horas)

TLE

ObsoletoSource: Space-Track

Época: Mar 3, 2019, 16:27 UTC

1 38627U 08011CA  19062.68599363 -.00000104  00000-0 -17928-3 0  9990
2 38627  49.2438 215.8766 6604738 113.4897 357.8223  2.99991689808952

Acompanhe BREEZE-M DEB em tempo real com AllMySat

Download on the App Store